Regional Weather Roundup
Issued by NWS Charleston, SC

Current Version | Previous Version | Graphics & Text | Print | Product List | Glossary On
Versions: 1 2 3 4 5 6 7 8 9 10 11 12 13 14 15 16 17 18 19 20 21 22 23 24 25 26 27 28 29 30 31 32 33 34 35 36 37 38 39 40 41 42 43 44 45 46 47 48 49 50
000
ASUS42 KCHS 161628
RWRCHS

Regional Weather Roundup
National Weather Service Charleston SC
1100 AM EST TUE JAN 16 2018

NOTE: "fair" indicates few or no clouds below 12,000 feet with no
significant weather and/or obstructions to visibility.

Not all stations are quality controlled. Use data with caution,
especially dewpoint observations.

SCZ027-030-031-034>040-042>050-161700-
...Southeast South Carolina...

CITY           SKY/WX    TMP DP  RH WIND       PRES   REMARKS
N Charleston   FAIR      47  21  35 CALM      30.48F
Waterfront Prk NOT AVBL
Mount Pleasant FAIR      46  23  39 CALM      30.47F
Johns Island   FAIR      50  23  34 CALM      30.47F
Pinopolis      NOT AVBL
Moncks Corner  FAIR      46  19  34 N3        30.47F
Summerville    FAIR      46  23  39 N3        30.47F
Beaufort MCAS  FAIR      46  24  42 CALM      30.49F
Beaufort Arpt  FAIR      45  27  49 N5        30.47F
Hilton Head Is SUNNY     46  21  36 NE7       30.49F
Walterboro     FAIR      46  23  39 CALM      30.48F
Allendale      FAIR      46  21  36 VRB5      30.46F

...Southern Midlands and Pee Dee...

CITY           SKY/WX    TMP DP  RH WIND       PRES   REMARKS
Georgetown     FAIR      45  21  39 CALM      30.48F
Kingstree      FAIR      45  18  33 CALM      30.47F
Orangeburg     FAIR      43  19  38 VRB3      30.48F
Barnwell         N/A     48  23  37 SE7       30.46F
Aiken          FAIR      45  23  42 S7        30.46F
Manning        FAIR      45  19  36 MISG      30.47F
Columbia       FAIR      43  22  43 SE5       30.46F
Sumter         FAIR      43  17  34 CALM      30.45F
Florence       FAIR      42  18  37 CALM      30.48F
Myrtle Beach   FAIR      44  21  40 N5        30.48F
N Myrtle Beach FAIR      44  25  47 NE6       30.46F

$$

GAZ063-065-086>088-099>101-113>116-118-119-134>141-150-161700-
...Southeast Georgia...

CITY           SKY/WX    TMP DP  RH WIND       PRES   REMARKS
Savannah Arpt  FAIR      49  24  37 NE3       30.48F
Hunter AAF     FAIR      49  24  37 NE5       30.45
Fort Stewart   FAIR      48  23  37 NE3       30.46F
Statesboro     FAIR      50  20  30 SE7       30.46F
Sylvania       FAIR      49  27  43 SE5       30.46F
Claxton        FAIR      51  27  38 CALM      30.46F

...CSRA, Central and far Southeast Georgia...

CITY           SKY/WX    TMP DP  RH WIND       PRES   REMARKS
Thomson        FAIR      46  22  38 SW5       30.50S
Augusta-Bush   FAIR      44  23  43 SE7       30.46F
Augusta-Daniel FAIR      44  21  40 S10       30.45F
Swainsboro     FAIR      48  28  46 S3        30.46F
Vidalia        FAIR      52  30  43 SE3       30.45F
Eastman        FAIR      51   7  17 SE6       30.48F
Hazlehurst     FAIR      52  13  21 CALM      30.44F
Alma           FAIR      50  25  37 E6        30.46F
Waycross       FAIR      52  24  34 E3        30.46F
Jesup          FAIR      52  21  30 SE5       30.47F
Baxley         FAIR      50  27  40 S5        30.45F
Brunswick      FAIR      52  32  46 NE7       30.47F
Saint Simons   FAIR      52  36  54 N10       30.46F

$$

SCZ027-028-034-036>038-045-046-048>050-GAZ119-141-161700-
...Lake and Supplemental Coastal Observations...

STATION/POSITION TIME  TEMP    WIND        PRES    WAVE   SWELL
                       AIR SEA DIR/SP/G            HT/PER HT/PER/DIR
                 (UTC) (F)     (DEG/KT/KT) (MB)    (FT/S) (FT/S/D)
Winyah Bay       1530   40      70/  7     1032.0S
Lake Murray      1620   43      90/  2/  3 1030.5S
ACE Basin NERRS  1545   47      40/  2     1032.0S
Fort Pulaski     1600   43 46   80/  6/  7 1032.3
Sapelo Island    1600   50     360/ 10     1032.0

$$

ANZ835-935-AMZ111-154-330-350-352-354-370-450-454-472-161700-
...C-MAN and Buoy Observations...

STATION/POSITION TIME  TEMP    WIND        PRES    WAVE   SWELL
                       AIR SEA DIR/SP/G            HT/PER HT/PER/DIR
                 (UTC) (F)     (DEG/KT/KT) (MB)    (FT/S) (FT/S/D)
Buoy 41004       1610   51 69   20/  8/ 12 1031.3
Buoy 41008       1550   47 51   30/ 16/ 17 1031.0F   4/10   2/ 90/10
Folly Beach CMAN 1600   43      50/  7/  8 1032.4F
Capers Nearshore 1608   41 47   60/  8/ 12 1031.6F
Fripp Nearshore  1608   43 46   60/  8/ 10 1031.7F


STATION/POSITION TIME  TEMP    WIND        PRES    WAVE   SWELL
                       AIR SEA DIR/SP/G            HT/PER HT/PER/DIR
                 (UTC) (F)     (DEG/KT/KT) (MB)    (FT/S) (FT/S/D)
5E St. Marys GA  1600      50                N/A     4/11   2/ 90/11
Frying Pan Buoy  1610   46 57   20/ 10/ 14 1031.0
Buoy 41025       1610   43 67  340/ 17/ 23 1030.7
Cape Lookout NC  1600          340/  7/  8 1031.3F
Buoy 41002       1550   67 71   50/  8/ 12 1027.2F   9/11  10/ 60/11
Buoy 41010       NOT AVBL
St Augustine FL  1600   49 50  350/ 19/ 21 1030.5S


$$




USA.gov is the U.S. government's official web portal to all federal, state and local government web resources and services.